Location: *
(55.6049°S, 142.1985°W)
Time: 02:04:10
(UTC+00:00)

Cosmos 1850 Rocket - Pass Details

Date: 12 May 2021
Orbit: 754 x 786 km, 74.0° (Epoch: 23 June)

Event Time Altitude Azimuth Distance (km) Brightness Sun altitude
Rises 15:52:42 0° 341° (NNW) 3,255 7.2 -11.2°
Reaches altitude 10° 15:55:05 10° 343° (NNW) 2,330 6.5 -10.9°
Maximum altitude 16:00:21 73° 66° (ENE) 816 4.3 -10.2°
Drops below altitude 10° 16:05:39 10° 149° (SSE) 2,335 6.7 -9.5°
Sets 16:08:02 0° 151° (SSE) 3,263 7.4 -9.2°
